Time,TemperatureF,DewpointF,PressureIn,WindDirection,WindDirectionDegrees,WindSpeedMPH,WindSpeedGustMPH,Humidity,HourlyPrecipIn,Conditions,Clouds,dailyrainin,SoftwareType,DateUTC
2013-11-24 00:02:00,69.7,62.5,30.05,North,360,0.0,0.0,78,0.00,,,0.00,Wunderground v.1.13,2013-11-24 05:02:00,
2013-11-24 00:04:00,69.7,62.5,30.05,North,360,0.0,0.0,78,0.00,,,0.00,Wunderground v.1.13,2013-11-24 05:04:00,
2013-11-24 00:05:00,69.7,62.5,30.05,North,360,0.0,0.0,78,0.00,,,0.00,Wunderground v.1.13,2013-11-24 05:05:00,
2013-11-24 00:08:00,69.8,62.6,30.05,North,360,0.0,0.0,78,0.00,,,0.00,Wunderground v.1.13,2013-11-24 05:08:00,
2013-11-24 00:13:00,69.8,62.6,30.05,North,360,0.0,0.0,78,0.00,,,0.00,Wunderground v.1.13,2013-11-24 05:13:00,
2013-11-24 00:16:00,69.8,62.6,30.05,North,360,0.0,0.0,78,0.00,,,0.00,Wunderground v.1.13,2013-11-24 05:16:00,
2013-11-24 00:21:00,69.9,62.7,30.05,North,360,0.0,0.0,78,0.00,,,0.00,Wunderground v.1.13,2013-11-24 05:21:00,
2013-11-24 00:26:00,69.9,62.7,30.04,North,9,0.0,0.0,78,0.00,,,0.00,Wunderground v.1.13,2013-11-24 05:26:00,
2013-11-24 00:31:00,69.9,62.7,30.04,NW,326,0.0,0.0,78,0.00,,,0.00,Wunderground v.1.13,2013-11-24 05:31:00,
2013-11-24 00:36:00,69.9,62.7,30.04,NNW,330,0.0,0.0,78,0.00,,,0.00,Wunderground v.1.13,2013-11-24 05:36:00,
2013-11-24 00:38:00,69.9,62.7,30.04,NNW,331,0.0,0.0,78,0.00,,,0.00,Wunderground v.1.13,2013-11-24 05:38:00,
2013-11-24 00:43:00,69.9,62.7,30.04,NNW,331,0.0,0.0,78,0.00,,,0.00,Wunderground v.1.13,2013-11-24 05:43:00,
2013-11-24 00:48:00,69.9,62.7,30.04,North,350,0.0,0.0,78,0.00,,,0.00,Wunderground v.1.13,2013-11-24 05:48:00,
2013-11-24 00:54:00,70.0,62.8,30.04,North,350,0.0,0.0,78,0.00,,,0.00,Wunderground v.1.13,2013-11-24 05:54:00,
2013-11-24 00:59:00,70.0,62.8,30.04,North,355,0.0,0.0,78,0.00,,,0.00,Wunderground v.1.13,2013-11-24 05:59:00,
2013-11-24 01:04:00,70.0,62.8,30.04,NNE,19,1.0,1.0,78,0.00,,,0.00,Wunderground v.1.13,2013-11-24 06:04:00,
2013-11-24 01:09:00,70.0,62.8,30.04,NNE,17,0.0,0.0,78,0.00,,,0.00,Wunderground v.1.13,2013-11-24 06:09:00,
2013-11-24 01:15:00,70.0,62.8,30.04,North,350,0.0,0.0,78,0.00,,,0.00,Wunderground v.1.13,2013-11-24 06:15:00,
2013-11-24 01:20:00,69.9,62.7,30.04,North,350,0.0,0.0,78,0.00,,,0.00,Wunderground v.1.13,2013-11-24 06:20:00,
2013-11-24 01:25:00,69.9,62.7,30.04,North,355,0.0,0.0,78,0.00,,,0.00,Wunderground v.1.13,2013-11-24 06:25:00,
2013-11-24 01:30:00,69.9,62.7,30.04,North,355,0.0,0.0,78,0.00,,,0.00,Wunderground v.1.13,2013-11-24 06:30:00,
2013-11-24 01:35:00,69.9,62.7,30.04,North,355,1.0,1.0,78,0.00,,,0.00,Wunderground v.1.13,2013-11-24 06:35:00,
2013-11-24 01:41:00,69.8,62.6,30.04,North,360,0.0,3.0,78,0.00,,,0.00,Wunderground v.1.13,2013-11-24 06:41:00,
2013-11-24 01:46:00,69.7,62.5,30.04,North,9,0.0,0.0,78,0.00,,,0.00,Wunderground v.1.13,2013-11-24 06:46:00,
2013-11-24 01:51:00,69.7,62.9,30.04,North,5,0.0,0.0,79,0.00,,,0.00,Wunderground v.1.13,2013-11-24 06:51:00,
2013-11-24 01:56:00,69.6,62.8,30.04,North,5,0.0,0.0,79,0.00,,,0.00,Wunderground v.1.13,2013-11-24 06:56:00,
2013-11-24 02:01:00,69.5,62.7,30.04,North,360,0.0,0.0,79,0.00,,,0.00,Wunderground v.1.13,2013-11-24 07:01:00,
2013-11-24 02:06:00,69.4,62.6,30.04,North,5,0.0,1.0,79,0.00,,,0.00,Wunderground v.1.13,2013-11-24 07:06:00,
2013-11-24 02:11:00,69.4,62.6,30.04,NNW,346,0.0,1.0,79,0.00,,,0.00,Wunderground v.1.13,2013-11-24 07:11:00,
2013-11-24 02:16:00,69.3,62.5,30.04,NNW,346,0.0,0.0,79,0.00,,,0.00,Wunderground v.1.13,2013-11-24 07:16:00,
2013-11-24 02:21:00,69.2,62.4,30.04,North,350,0.0,1.0,79,0.00,,,0.00,Wunderground v.1.13,2013-11-24 07:21:00,
2013-11-24 02:26:00,69.2,62.4,30.04,NNW,342,1.0,1.0,79,0.00,,,0.00,Wunderground v.1.13,2013-11-24 07:26:00,
2013-11-24 02:31:00,69.1,62.3,30.04,North,5,0.0,0.0,79,0.00,,,0.00,Wunderground v.1.13,2013-11-24 07:31:00,
2013-11-24 02:36:00,69.1,62.3,30.04,North,5,0.0,0.0,79,0.00,,,0.00,Wunderground v.1.13,2013-11-24 07:36:00,
2013-11-24 02:41:00,69.0,62.2,30.04,North,5,0.0,0.0,79,0.00,,,0.00,Wunderground v.1.13,2013-11-24 07:41:00,
2013-11-24 02:46:00,69.0,62.2,30.04,North,5,0.0,1.0,79,0.00,,,0.00,Wunderground v.1.13,2013-11-24 07:46:00,
2013-11-24 02:51:00,68.9,62.1,30.04,NNW,347,1.0,1.0,79,0.00,,,0.00,Wunderground v.1.13,2013-11-24 07:51:00,
2013-11-24 02:56:00,68.8,62.0,30.04,NNW,346,0.0,0.0,79,0.00,,,0.00,Wunderground v.1.13,2013-11-24 07:56:00,
2013-11-24 03:01:00,68.8,62.0,30.04,NE,34,5.0,9.0,79,0.00,,,0.00,Wunderground v.1.13,2013-11-24 08:01:00,
2013-11-24 03:06:00,68.8,62.0,30.04,North,360,0.0,1.0,79,0.00,,,0.00,Wunderground v.1.13,2013-11-24 08:06:00,
2013-11-24 03:11:00,68.8,62.0,30.04,North,5,0.0,1.0,79,0.00,,,0.00,Wunderground v.1.13,2013-11-24 08:11:00,
2013-11-24 03:16:00,68.8,62.0,30.04,NNE,28,3.0,9.0,79,0.00,,,0.00,Wunderground v.1.13,2013-11-24 08:16:00,
2013-11-24 03:22:00,68.8,62.0,30.03,NNE,18,1.0,1.0,79,0.00,,,0.00,Wunderground v.1.13,2013-11-24 08:22:00,
2013-11-24 03:27:00,68.7,61.9,30.03,NNE,31,0.0,2.0,79,0.00,,,0.00,Wunderground v.1.13,2013-11-24 08:27:00,
2013-11-24 03:32:00,68.7,61.9,30.03,NNE,26,4.0,11.0,79,0.00,,,0.00,Wunderground v.1.13,2013-11-24 08:32:00,
2013-11-24 03:37:00,68.7,61.9,30.03,North,9,0.0,1.0,79,0.00,,,0.00,Wunderground v.1.13,2013-11-24 08:37:00,
2013-11-24 03:42:00,68.6,61.8,30.03,North,9,0.0,1.0,79,0.00,,,0.00,Wunderground v.1.13,2013-11-24 08:42:00,
2013-11-24 03:47:00,68.5,61.7,30.03,North,9,0.0,0.0,79,0.00,,,0.00,Wunderground v.1.13,2013-11-24 08:47:00,
2013-11-24 03:52:00,68.4,61.6,30.03,NNE,32,0.0,1.0,79,0.00,,,0.00,Wunderground v.1.13,2013-11-24 08:52:00,
2013-11-24 03:58:00,68.3,61.5,30.03,NNE,19,0.0,6.0,79,0.00,,,0.00,Wunderground v.1.13,2013-11-24 08:58:00,
2013-11-24 04:03:00,68.3,61.5,30.03,NNE,19,0.0,0.0,79,0.00,,,0.00,Wunderground v.1.13,2013-11-24 09:03:00,
2013-11-24 04:08:00,68.1,61.3,30.03,NNE,19,0.0,0.0,79,0.00,,,0.00,Wunderground v.1.13,2013-11-24 09:08:00,
2013-11-24 04:13:00,68.0,61.2,30.03,NNE,18,0.0,0.0,79,0.00,,,0.00,Wunderground v.1.13,2013-11-24 09:13:00,
2013-11-24 04:18:00,68.0,61.2,30.03,NNE,24,0.0,0.0,79,0.00,,,0.00,Wunderground v.1.13,2013-11-24 09:18:00,
2013-11-24 04:23:00,68.0,61.2,30.03,NNE,24,0.0,0.0,79,0.00,,,0.00,Wunderground v.1.13,2013-11-24 09:23:00,
2013-11-24 04:29:00,67.9,61.1,30.03,North,360,0.0,0.0,79,0.00,,,0.00,Wunderground v.1.13,2013-11-24 09:29:00,
2013-11-24 04:34:00,67.8,61.0,30.03,North,360,0.0,0.0,79,0.00,,,0.00,Wunderground v.1.13,2013-11-24 09:34:00,
2013-11-24 04:39:00,67.7,61.0,30.03,North,360,0.0,0.0,79,0.00,,,0.00,Wunderground v.1.13,2013-11-24 09:39:00,
2013-11-24 04:44:00,67.7,61.0,30.03,North,360,0.0,0.0,79,0.00,,,0.00,Wunderground v.1.13,2013-11-24 09:44:00,
2013-11-24 04:49:00,67.6,60.9,30.04,North,360,0.0,0.0,79,0.00,,,0.00,Wunderground v.1.13,2013-11-24 09:49:00,
2013-11-24 04:54:00,67.6,60.9,30.04,North,360,0.0,0.0,79,0.00,,,0.00,Wunderground v.1.13,2013-11-24 09:54:00,
2013-11-24 04:59:00,67.6,60.9,30.03,North,9,0.0,0.0,79,0.00,,,0.00,Wunderground v.1.13,2013-11-24 09:59:00,
2013-11-24 05:04:00,67.5,60.8,30.04,North,9,0.0,0.0,79,0.00,,,0.00,Wunderground v.1.13,2013-11-24 10:04:00,
2013-11-24 05:09:00,67.6,60.9,30.04,North,360,0.0,0.0,79,0.00,,,0.00,Wunderground v.1.13,2013-11-24 10:09:00,
2013-11-24 05:14:00,67.5,60.8,30.04,North,5,0.0,0.0,79,0.00,,,0.00,Wunderground v.1.13,2013-11-24 10:14:00,
2013-11-24 05:19:00,67.5,60.8,30.04,NW,306,0.0,0.0,79,0.00,,,0.00,Wunderground v.1.13,2013-11-24 10:19:00,
2013-11-24 05:24:00,67.5,60.8,30.04,NNW,345,0.0,0.0,79,0.00,,,0.00,Wunderground v.1.13,2013-11-24 10:24:00,
2013-11-24 05:29:00,67.5,60.8,30.05,NNW,340,0.0,4.0,79,0.00,,,0.00,Wunderground v.1.13,2013-11-24 10:29:00,
2013-11-24 05:34:00,67.5,60.8,30.05,North,355,0.0,7.0,79,0.00,,,0.00,Wunderground v.1.13,2013-11-24 10:34:00,
2013-11-24 05:39:00,67.6,60.9,30.05,North,9,0.0,5.0,79,0.00,,,0.00,Wunderground v.1.13,2013-11-24 10:39:00,
2013-11-24 05:44:00,67.6,60.9,30.05,NNW,344,0.0,6.0,79,0.00,,,0.00,Wunderground v.1.13,2013-11-24 10:44:00,
2013-11-24 05:49:00,67.7,61.0,30.05,NNW,332,0.0,10.0,79,0.00,,,0.00,Wunderground v.1.13,2013-11-24 10:49:00,
2013-11-24 05:54:00,67.7,61.0,30.05,NNE,13,4.0,8.0,79,0.00,,,0.00,Wunderground v.1.13,2013-11-24 10:54:00,
2013-11-24 05:59:00,67.7,61.0,30.05,North,360,0.0,11.0,79,0.00,,,0.00,Wunderground v.1.13,2013-11-24 10:59:00,
2013-11-24 06:04:00,67.8,61.0,30.06,North,360,0.0,1.0,79,0.00,,,0.00,Wunderground v.1.13,2013-11-24 11:04:00,
2013-11-24 06:09:00,67.8,61.0,30.06,NNW,348,0.0,7.0,79,0.00,,,0.00,Wunderground v.1.13,2013-11-24 11:09:00,
2013-11-24 06:14:00,67.9,61.1,30.07,North,360,0.0,7.0,79,0.00,,,0.00,Wunderground v.1.13,2013-11-24 11:14:00,
2013-11-24 06:19:00,67.9,61.1,30.07,NNE,14,0.0,7.0,79,0.00,,,0.00,Wunderground v.1.13,2013-11-24 11:19:00,
2013-11-24 06:24:00,67.9,61.1,30.07,North,355,0.0,10.0,79,0.00,,,0.00,Wunderground v.1.13,2013-11-24 11:24:00,
2013-11-24 06:29:00,67.9,61.1,30.07,North,5,0.0,4.0,79,0.00,,,0.00,Wunderground v.1.13,2013-11-24 11:29:00,
2013-11-24 06:34:00,67.9,61.1,30.07,North,360,1.0,9.0,79,0.00,,,0.00,Wunderground v.1.13,2013-11-24 11:34:00,
2013-11-24 06:39:00,67.8,61.0,30.07,NNE,21,5.0,9.0,79,0.00,,,0.00,Wunderground v.1.13,2013-11-24 11:39:00,
2013-11-24 06:44:00,67.8,61.0,30.07,NNE,22,0.0,6.0,79,0.00,,,0.00,Wunderground v.1.13,2013-11-24 11:44:00,
2013-11-24 06:49:00,67.7,61.0,30.07,NNE,30,0.0,10.0,79,0.00,,,0.00,Wunderground v.1.13,2013-11-24 11:49:00,
2013-11-24 06:54:00,67.7,61.0,30.08,NNE,15,7.0,10.0,79,0.00,,,0.00,Wunderground v.1.13,2013-11-24 11:54:00,
2013-11-24 06:59:00,67.6,60.9,30.08,NNW,348,1.0,13.0,79,0.00,,,0.00,Wunderground v.1.13,2013-11-24 11:59:00,
2013-11-24 07:04:00,67.5,60.8,30.08,NNE,18,4.0,10.0,79,0.00,,,0.00,Wunderground v.1.13,2013-11-24 12:04:00,
2013-11-24 07:09:00,67.2,60.5,30.09,North,11,0.0,12.0,79,0.00,,,0.00,Wunderground v.1.13,2013-11-24 12:09:00,
2013-11-24 07:14:00,67.0,60.3,30.09,NNW,342,1.0,10.0,79,0.00,,,0.00,Wunderground v.1.13,2013-11-24 12:14:00,
2013-11-24 07:19:00,66.6,59.5,30.09,NNE,27,3.0,14.0,78,0.00,,,0.00,Wunderground v.1.13,2013-11-24 12:19:00,
2013-11-24 07:24:00,66.5,59.4,30.09,NE,34,0.0,11.0,78,0.00,,,0.00,Wunderground v.1.13,2013-11-24 12:24:00,
2013-11-24 07:29:00,66.5,59.4,30.09,NNE,17,10.0,10.0,78,0.00,,,0.00,Wunderground v.1.13,2013-11-24 12:29:00,
2013-11-24 07:34:00,66.5,59.4,30.09,NNE,26,0.0,2.0,78,0.00,,,0.00,Wunderground v.1.13,2013-11-24 12:34:00,
2013-11-24 07:39:00,66.6,59.5,30.09,NNE,28,4.0,4.0,78,0.00,,,0.00,Wunderground v.1.13,2013-11-24 12:39:00,
2013-11-24 07:44:00,66.8,59.7,30.10,North,349,10.0,10.0,78,0.00,,,0.00,Wunderground v.1.13,2013-11-24 12:44:00,
2013-11-24 07:49:00,66.8,59.7,30.09,North,11,0.0,3.0,78,0.00,,,0.00,Wunderground v.1.13,2013-11-24 12:49:00,
2013-11-24 07:54:00,66.8,59.7,30.10,NE,56,8.0,10.0,78,0.00,,,0.00,Wunderground v.1.13,2013-11-24 12:54:00,
2013-11-24 07:59:00,66.7,59.6,30.10,North,360,0.0,5.0,78,0.00,,,0.00,Wunderground v.1.13,2013-11-24 12:59:00,
2013-11-24 08:04:00,66.7,59.6,30.10,North,5,0.0,3.0,78,0.00,,,0.00,Wunderground v.1.13,2013-11-24 13:04:00,
2013-11-24 08:09:00,66.7,59.6,30.10,NNE,26,1.0,1.0,78,0.00,,,0.00,Wunderground v.1.13,2013-11-24 13:09:00,
2013-11-24 08:14:00,66.8,59.7,30.10,North,360,1.0,1.0,78,0.00,,,0.00,Wunderground v.1.13,2013-11-24 13:14:00,
2013-11-24 08:19:00,66.6,59.5,30.11,NNE,21,3.0,9.0,78,0.00,,,0.00,Wunderground v.1.13,2013-11-24 13:19:00,
2013-11-24 08:24:00,66.6,59.5,30.10,NNE,21,10.0,10.0,78,0.00,,,0.00,Wunderground v.1.13,2013-11-24 13:24:00,
2013-11-24 08:30:00,66.5,59.4,30.11,North,355,5.0,7.0,78,0.00,,,0.00,Wunderground v.1.13,2013-11-24 13:30:00,
2013-11-24 08:35:00,66.5,59.4,30.11,NNW,347,3.0,10.0,78,0.00,,,0.00,Wunderground v.1.13,2013-11-24 13:35:00,
2013-11-24 08:40:00,66.5,59.4,30.11,NNW,340,0.0,3.0,78,0.00,,,0.00,Wunderground v.1.13,2013-11-24 13:40:00,
2013-11-24 08:45:00,66.5,59.4,30.11,NNE,26,10.0,10.0,78,0.00,,,0.00,Wunderground v.1.13,2013-11-24 13:45:00,
2013-11-24 08:50:00,66.5,59.1,30.11,NE,39,0.0,2.0,77,0.00,,,0.00,Wunderground v.1.13,2013-11-24 13:50:00,
2013-11-24 08:55:00,66.5,59.1,30.11,NNE,24,13.0,13.0,77,0.00,,,0.00,Wunderground v.1.13,2013-11-24 13:55:00,
2013-11-24 09:00:00,66.6,59.2,30.11,North,355,0.0,3.0,77,0.00,,,0.00,Wunderground v.1.13,2013-11-24 14:00:00,
2013-11-24 09:05:00,66.8,59.4,30.11,NNE,32,0.0,4.0,77,0.00,,,0.00,Wunderground v.1.13,2013-11-24 14:05:00,
2013-11-24 09:10:00,66.7,59.3,30.11,ENE,63,9.0,13.0,77,0.00,,,0.00,Wunderground v.1.13,2013-11-24 14:10:00,
2013-11-24 09:15:00,66.6,59.2,30.12,NNE,32,7.0,11.0,77,0.00,,,0.00,Wunderground v.1.13,2013-11-24 14:15:00,
2013-11-24 09:20:00,66.4,59.0,30.12,NE,42,6.0,10.0,77,0.00,,,0.00,Wunderground v.1.13,2013-11-24 14:20:00,
2013-11-24 09:25:00,66.4,59.0,30.13,NW,318,4.0,5.0,77,0.00,,,0.00,Wunderground v.1.13,2013-11-24 14:25:00,
2013-11-24 09:30:00,66.2,58.8,30.13,NNE,25,7.0,10.0,77,0.00,,,0.00,Wunderground v.1.13,2013-11-24 14:30:00,
2013-11-24 09:35:00,66.1,58.7,30.13,NE,34,0.0,3.0,77,0.00,,,0.00,Wunderground v.1.13,2013-11-24 14:35:00,
2013-11-24 09:40:00,66.1,58.7,30.12,NE,44,0.0,4.0,77,0.00,,,0.00,Wunderground v.1.13,2013-11-24 14:40:00,
2013-11-24 09:45:00,66.3,58.9,30.12,ENE,75,0.0,2.0,77,0.00,,,0.00,Wunderground v.1.13,2013-11-24 14:45:00,
2013-11-24 09:50:00,66.5,59.1,30.13,NNE,19,0.0,5.0,77,0.00,,,0.00,Wunderground v.1.13,2013-11-24 14:50:00,
2013-11-24 09:55:00,66.7,59.3,30.13,North,5,2.0,9.0,77,0.00,,,0.00,Wunderground v.1.13,2013-11-24 14:55:00,
2013-11-24 10:01:00,66.9,59.1,30.13,NE,53,0.0,7.0,76,0.00,,,0.00,Wunderground v.1.13,2013-11-24 15:01:00,
2013-11-24 10:05:00,66.9,59.1,30.13,NE,40,9.0,11.0,76,0.00,,,0.00,Wunderground v.1.13,2013-11-24 15:05:00,
2013-11-24 10:11:00,66.8,59.0,30.13,NE,38,0.0,7.0,76,0.00,,,0.00,Wunderground v.1.13,2013-11-24 15:11:00,
2013-11-24 10:16:00,66.8,59.0,30.13,NNE,15,10.0,10.0,76,0.00,,,0.00,Wunderground v.1.13,2013-11-24 15:16:00,
2013-11-24 10:21:00,66.7,58.9,30.14,North,11,5.0,6.0,76,0.00,,,0.00,Wunderground v.1.13,2013-11-24 15:21:00,
2013-11-24 10:26:00,66.5,58.7,30.14,ENE,60,8.0,13.0,76,0.00,,,0.00,Wunderground v.1.13,2013-11-24 15:26:00,
2013-11-24 10:31:00,66.4,58.2,30.14,NNE,32,10.0,13.0,75,0.00,,,0.00,Wunderground v.1.13,2013-11-24 15:31:00,
2013-11-24 10:36:00,66.2,58.0,30.14,NNE,24,1.0,13.0,75,0.00,,,0.00,Wunderground v.1.13,2013-11-24 15:36:00,
2013-11-24 10:41:00,66.3,58.1,30.14,NE,34,6.0,13.0,75,0.00,,,0.00,Wunderground v.1.13,2013-11-24 15:41:00,
2013-11-24 10:46:00,66.5,58.3,30.14,North,355,0.0,11.0,75,0.00,,,0.00,Wunderground v.1.13,2013-11-24 15:46:00,
2013-11-24 10:51:00,66.8,58.6,30.14,North,5,11.0,11.0,75,0.00,,,0.00,Wunderground v.1.13,2013-11-24 15:51:00,
2013-11-24 10:56:00,66.7,58.5,30.14,NNE,14,0.0,12.0,75,0.00,,,0.00,Wunderground v.1.13,2013-11-24 15:56:00,
2013-11-24 11:01:00,66.8,58.6,30.14,NE,38,0.0,6.0,75,0.00,,,0.00,Wunderground v.1.13,2013-11-24 16:01:00,
2013-11-24 11:06:00,67.0,58.8,30.14,NE,46,1.0,9.0,75,0.00,,,0.00,Wunderground v.1.13,2013-11-24 16:06:00,
2013-11-24 11:11:00,67.1,58.9,30.14,NNE,26,14.0,14.0,75,0.00,,,0.00,Wunderground v.1.13,2013-11-24 16:11:00,
2013-11-24 11:16:00,66.9,58.3,30.14,NE,42,6.0,9.0,74,0.00,,,0.00,Wunderground v.1.13,2013-11-24 16:16:00,
2013-11-24 11:21:00,67.2,59.0,30.14,North,360,6.0,6.0,75,0.00,,,0.00,Wunderground v.1.13,2013-11-24 16:21:00,
2013-11-24 11:26:00,67.7,59.1,30.13,NE,55,10.0,14.0,74,0.00,,,0.00,Wunderground v.1.13,2013-11-24 16:26:00,
2013-11-24 11:31:00,68.0,59.4,30.13,NNE,13,9.0,10.0,74,0.00,,,0.00,Wunderground v.1.13,2013-11-24 16:31:00,
2013-11-24 11:36:00,68.6,59.6,30.13,NNE,15,1.0,7.0,73,0.00,,,0.00,Wunderground v.1.13,2013-11-24 16:36:00,
2013-11-24 11:41:00,68.9,59.9,30.13,NE,36,2.0,3.0,73,0.00,,,0.00,Wunderground v.1.13,2013-11-24 16:41:00,
2013-11-24 11:46:00,69.0,59.6,30.12,NNE,22,1.0,3.0,72,0.00,,,0.00,Wunderground v.1.13,2013-11-24 16:46:00,
2013-11-24 11:51:00,69.0,59.6,30.12,NNE,18,9.0,9.0,72,0.00,,,0.00,Wunderground v.1.13,2013-11-24 16:51:00,
2013-11-24 11:56:00,68.9,59.5,30.12,NE,34,0.0,11.0,72,0.00,,,0.00,Wunderground v.1.13,2013-11-24 16:56:00,
2013-11-24 12:01:00,69.0,59.6,30.12,ENE,67,1.0,11.0,72,0.00,,,0.00,Wunderground v.1.13,2013-11-24 17:01:00,
2013-11-24 12:06:00,69.4,60.0,30.12,NE,50,0.0,3.0,72,0.00,,,0.00,Wunderground v.1.13,2013-11-24 17:06:00,
2013-11-24 12:11:00,69.4,60.0,30.12,NNE,22,0.0,11.0,72,0.00,,,0.00,Wunderground v.1.13,2013-11-24 17:11:00,
2013-11-24 12:17:00,69.2,59.4,30.13,NE,42,0.0,10.0,71,0.00,,,0.00,Wunderground v.1.13,2013-11-24 17:17:00,
2013-11-24 12:22:00,69.2,59.4,30.13,NE,49,0.0,11.0,71,0.00,,,0.00,Wunderground v.1.13,2013-11-24 17:22:00,
2013-11-24 12:27:00,68.8,59.4,30.13,NNE,13,1.0,11.0,72,0.00,,,0.00,Wunderground v.1.13,2013-11-24 17:27:00,
2013-11-24 12:32:00,68.7,59.3,30.12,NNE,19,4.0,14.0,72,0.00,,,0.00,Wunderground v.1.13,2013-11-24 17:32:00,
2013-11-24 12:37:00,68.7,59.3,30.12,NE,48,4.0,10.0,72,0.00,,,0.00,Wunderground v.1.13,2013-11-24 17:37:00,
2013-11-24 12:43:00,68.6,59.2,30.12,NNE,24,1.0,15.0,72,0.00,,,0.00,Wunderground v.1.13,2013-11-24 17:43:00,
2013-11-24 12:48:00,68.7,59.3,30.12,NNE,14,0.0,10.0,72,0.00,,,0.00,Wunderground v.1.13,2013-11-24 17:48:00,
2013-11-24 12:53:00,69.1,59.7,30.11,NE,38,0.0,3.0,72,0.00,,,0.00,Wunderground v.1.13,2013-11-24 17:53:00,
2013-11-24 12:58:00,69.2,59.4,30.11,NE,48,11.0,15.0,71,0.00,,,0.00,Wunderground v.1.13,2013-11-24 17:58:00,
2013-11-24 13:03:00,69.1,59.3,30.11,ENE,60,0.0,16.0,71,0.00,,,0.00,Wunderground v.1.13,2013-11-24 18:03:00,
2013-11-24 13:08:00,69.2,59.4,30.11,NNE,29,2.0,11.0,71,0.00,,,0.00,Wunderground v.1.13,2013-11-24 18:08:00,
2013-11-24 13:13:00,69.2,59.4,30.11,North,360,1.0,14.0,71,0.00,,,0.00,Wunderground v.1.13,2013-11-24 18:13:00,
2013-11-24 13:18:00,69.2,59.4,30.11,NNE,32,1.0,11.0,71,0.00,,,0.00,Wunderground v.1.13,2013-11-24 18:18:00,
2013-11-24 13:23:00,69.4,59.6,30.11,East,89,0.0,10.0,71,0.00,,,0.00,Wunderground v.1.13,2013-11-24 18:23:00,
2013-11-24 13:28:00,69.4,59.2,30.11,East,88,1.0,11.0,70,0.00,,,0.00,Wunderground v.1.13,2013-11-24 18:28:00,
2013-11-24 13:33:00,69.4,59.2,30.11,NE,46,2.0,10.0,70,0.00,,,0.00,Wunderground v.1.13,2013-11-24 18:33:00,
2013-11-24 13:38:00,69.6,59.8,30.11,NNE,28,1.0,3.0,71,0.00,,,0.00,Wunderground v.1.13,2013-11-24 18:38:00,
2013-11-24 13:43:00,69.7,59.9,30.11,NNW,345,0.0,9.0,71,0.00,,,0.00,Wunderground v.1.13,2013-11-24 18:43:00,
2013-11-24 13:48:00,69.3,59.1,30.11,NE,38,9.0,15.0,70,0.00,,,0.00,Wunderground v.1.13,2013-11-24 18:48:00,
2013-11-24 13:53:00,69.1,58.9,30.11,NE,46,2.0,12.0,70,0.00,,,0.00,Wunderground v.1.13,2013-11-24 18:53:00,
2013-11-24 13:58:00,69.3,59.1,30.10,NE,38,0.0,17.0,70,0.00,,,0.00,Wunderground v.1.13,2013-11-24 18:58:00,
2013-11-24 14:03:00,69.6,59.4,30.10,NE,35,4.0,13.0,70,0.00,,,0.00,Wunderground v.1.13,2013-11-24 19:03:00,
2013-11-24 14:08:00,69.8,59.2,30.10,NE,37,6.0,13.0,69,0.00,,,0.00,Wunderground v.1.13,2013-11-24 19:08:00,
2013-11-24 14:13:00,69.9,59.3,30.10,NNE,33,0.0,9.0,69,0.00,,,0.00,Wunderground v.1.13,2013-11-24 19:13:00,
2013-11-24 14:18:00,70.1,59.5,30.10,East,84,1.0,7.0,69,0.00,,,0.00,Wunderground v.1.13,2013-11-24 19:18:00,
2013-11-24 14:23:00,70.1,59.0,30.10,NNE,16,2.0,12.0,68,0.00,,,0.00,Wunderground v.1.13,2013-11-24 19:23:00,
2013-11-24 14:28:00,69.7,59.1,30.10,NE,37,1.0,13.0,69,0.00,,,0.00,Wunderground v.1.13,2013-11-24 19:28:00,
2013-11-24 14:33:00,69.5,59.3,30.10,NE,42,0.0,14.0,70,0.00,,,0.00,Wunderground v.1.13,2013-11-24 19:33:00,
2013-11-24 14:38:00,69.1,58.9,30.10,North,5,5.0,16.0,70,0.00,,,0.00,Wunderground v.1.13,2013-11-24 19:38:00,
2013-11-24 14:43:00,68.9,58.7,30.11,NE,45,1.0,15.0,70,0.00,,,0.00,Wunderground v.1.13,2013-11-24 19:43:00,
2013-11-24 14:48:00,68.8,58.6,30.11,North,360,7.0,13.0,70,0.00,,,0.00,Wunderground v.1.13,2013-11-24 19:48:00,
2013-11-24 14:53:00,68.5,58.7,30.11,NNE,17,0.0,10.0,71,0.00,,,0.00,Wunderground v.1.13,2013-11-24 19:53:00,
2013-11-24 14:58:00,68.4,58.6,30.11,North,360,9.0,13.0,71,0.00,,,0.00,Wunderground v.1.13,2013-11-24 19:58:00,
2013-11-24 15:03:00,68.2,58.4,30.11,NNE,28,1.0,15.0,71,0.00,,,0.00,Wunderground v.1.13,2013-11-24 20:03:00,
2013-11-24 15:08:00,68.2,58.4,30.11,NE,49,0.0,8.0,71,0.00,,,0.00,Wunderground v.1.13,2013-11-24 20:08:00,
2013-11-24 15:13:00,68.0,58.2,30.11,NE,37,10.0,10.0,71,0.00,,,0.00,Wunderground v.1.13,2013-11-24 20:13:00,
2013-11-24 15:18:00,67.7,58.0,30.12,NNE,25,5.0,12.0,71,0.00,,,0.00,Wunderground v.1.13,2013-11-24 20:18:00,
2013-11-24 15:23:00,67.8,58.4,30.12,NNE,26,11.0,11.0,72,0.00,,,0.00,Wunderground v.1.13,2013-11-24 20:23:00,
2013-11-24 15:28:00,67.7,58.0,30.12,NE,42,4.0,13.0,71,0.00,,,0.00,Wunderground v.1.13,2013-11-24 20:28:00,
2013-11-24 15:33:00,67.7,58.0,30.12,ENE,59,7.0,17.0,71,0.00,,,0.00,Wunderground v.1.13,2013-11-24 20:33:00,
2013-11-24 15:39:00,67.8,57.7,30.12,NE,37,7.0,12.0,70,0.00,,,0.00,Wunderground v.1.13,2013-11-24 20:39:00,
2013-11-24 15:44:00,67.9,57.8,30.12,NNE,31,0.0,13.0,70,0.00,,,0.00,Wunderground v.1.13,2013-11-24 20:44:00,
2013-11-24 15:49:00,68.0,57.8,30.12,NNE,33,11.0,13.0,70,0.00,,,0.00,Wunderground v.1.13,2013-11-24 20:49:00,
2013-11-24 15:54:00,67.9,57.8,30.12,NNE,17,0.0,12.0,70,0.00,,,0.00,Wunderground v.1.13,2013-11-24 20:54:00,
2013-11-24 15:59:00,67.8,57.3,30.13,NNE,22,10.0,12.0,69,0.00,,,0.00,Wunderground v.1.13,2013-11-24 20:59:00,
2013-11-24 16:04:00,67.7,57.2,30.13,NE,51,0.0,13.0,69,0.00,,,0.00,Wunderground v.1.13,2013-11-24 21:04:00,
2013-11-24 16:09:00,67.6,57.1,30.13,NE,46,3.0,16.0,69,0.00,,,0.00,Wunderground v.1.13,2013-11-24 21:09:00,
2013-11-24 16:14:00,67.5,57.4,30.13,NE,44,0.0,13.0,70,0.00,,,0.00,Wunderground v.1.13,2013-11-24 21:14:00,
2013-11-24 16:19:00,67.2,56.7,30.14,NNE,32,0.0,16.0,69,0.00,,,0.00,Wunderground v.1.13,2013-11-24 21:19:00,
2013-11-24 16:24:00,67.0,56.5,30.14,East,90,1.0,14.0,69,0.00,,,0.00,Wunderground v.1.13,2013-11-24 21:24:00,
2013-11-24 16:29:00,66.8,56.3,30.14,NNE,28,0.0,12.0,69,0.00,,,0.00,Wunderground v.1.13,2013-11-24 21:29:00,
2013-11-24 16:34:00,66.6,56.5,30.15,East,92,1.0,15.0,70,0.00,,,0.00,Wunderground v.1.13,2013-11-24 21:34:00,
2013-11-24 16:39:00,66.2,55.7,30.14,East,91,1.0,18.0,69,0.00,,,0.00,Wunderground v.1.13,2013-11-24 21:39:00,
2013-11-24 16:44:00,65.9,55.8,30.15,NNE,16,11.0,13.0,70,0.00,,,0.00,Wunderground v.1.13,2013-11-24 21:44:00,
2013-11-24 16:49:00,65.6,55.5,30.15,ENE,61,3.0,16.0,70,0.00,,,0.00,Wunderground v.1.13,2013-11-24 21:49:00,
2013-11-24 16:54:00,65.3,55.3,30.15,NNE,27,4.0,13.0,70,0.00,,,0.00,Wunderground v.1.13,2013-11-24 21:54:00,
2013-11-24 16:59:00,65.1,55.1,30.15,NE,43,6.0,13.0,70,0.00,,,0.00,Wunderground v.1.13,2013-11-24 21:59:00,
2013-11-24 17:04:00,64.8,54.8,30.15,ENE,69,4.0,14.0,70,0.00,,,0.00,Wunderground v.1.13,2013-11-24 22:04:00,
2013-11-24 17:09:00,64.6,55.0,30.15,East,95,7.0,13.0,71,0.00,,,0.00,Wunderground v.1.13,2013-11-24 22:09:00,
2013-11-24 17:15:00,64.5,54.9,30.15,NE,46,0.0,4.0,71,0.00,,,0.00,Wunderground v.1.13,2013-11-24 22:15:00,
2013-11-24 17:20:00,64.4,54.4,30.15,NE,44,4.0,14.0,70,0.00,,,0.00,Wunderground v.1.13,2013-11-24 22:20:00,
2013-11-24 17:25:00,64.1,54.1,30.16,NE,37,0.0,7.0,70,0.00,,,0.00,Wunderground v.1.13,2013-11-24 22:25:00,
2013-11-24 17:30:00,64.1,54.5,30.16,East,80,0.0,7.0,71,0.00,,,0.00,Wunderground v.1.13,2013-11-24 22:30:00,
2013-11-24 17:35:00,64.0,54.4,30.16,NE,37,14.0,14.0,71,0.00,,,0.00,Wunderground v.1.13,2013-11-24 22:35:00,
2013-11-24 17:40:00,63.9,54.3,30.16,NE,56,0.0,2.0,71,0.00,,,0.00,Wunderground v.1.13,2013-11-24 22:40:00,
2013-11-24 17:45:00,63.9,54.3,30.16,ENE,65,6.0,6.0,71,0.00,,,0.00,Wunderground v.1.13,2013-11-24 22:45:00,
2013-11-24 17:50:00,63.8,54.2,30.16,NE,51,0.0,5.0,71,0.00,,,0.00,Wunderground v.1.13,2013-11-24 22:50:00,
2013-11-24 17:55:00,63.6,54.0,30.16,NE,47,0.0,6.0,71,0.00,,,0.00,Wunderground v.1.13,2013-11-24 22:55:00,
2013-11-24 18:00:00,63.4,53.8,30.16,NE,36,0.0,2.0,71,0.00,,,0.00,Wunderground v.1.13,2013-11-24 23:00:00,
2013-11-24 18:05:00,63.3,53.7,30.17,NE,38,0.0,4.0,71,0.00,,,0.00,Wunderground v.1.13,2013-11-24 23:05:00,
2013-11-24 18:10:00,63.0,53.4,30.17,NE,40,4.0,10.0,71,0.00,,,0.00,Wunderground v.1.13,2013-11-24 23:10:00,
2013-11-24 18:15:00,62.9,53.4,30.17,ENE,57,0.0,3.0,71,0.00,,,0.00,Wunderground v.1.13,2013-11-24 23:15:00,
2013-11-24 18:20:00,62.7,53.2,30.17,East,86,0.0,8.0,71,0.00,,,0.00,Wunderground v.1.13,2013-11-24 23:20:00,
2013-11-24 18:25:00,62.5,53.0,30.17,NNE,30,16.0,16.0,71,0.00,,,0.00,Wunderground v.1.13,2013-11-24 23:25:00,
2013-11-24 18:30:00,62.3,52.8,30.18,ENE,61,0.0,13.0,71,0.00,,,0.00,Wunderground v.1.13,2013-11-24 23:30:00,
2013-11-24 18:35:00,62.2,52.7,30.18,NE,40,0.0,4.0,71,0.00,,,0.00,Wunderground v.1.13,2013-11-24 23:35:00,
2013-11-24 18:40:00,62.1,52.6,30.18,NE,49,1.0,12.0,71,0.00,,,0.00,Wunderground v.1.13,2013-11-24 23:40:00,
2013-11-24 18:46:00,62.0,52.5,30.18,East,84,5.0,5.0,71,0.00,,,0.00,Wunderground v.1.13,2013-11-24 23:46:00,
2013-11-24 18:51:00,61.8,52.3,30.18,NE,56,10.0,15.0,71,0.00,,,0.00,Wunderground v.1.13,2013-11-24 23:51:00,
2013-11-24 18:56:00,61.7,52.2,30.18,NNE,28,2.0,15.0,71,0.00,,,0.00,Wunderground v.1.13,2013-11-24 23:56:00,
2013-11-24 19:01:00,61.6,52.1,30.18,NE,45,9.0,9.0,71,0.00,,,0.00,Wunderground v.1.13,2013-11-25 00:01:00,
2013-11-24 19:06:00,61.5,52.0,30.18,NE,37,5.0,10.0,71,0.00,,,0.00,Wunderground v.1.13,2013-11-25 00:06:00,
2013-11-24 19:11:00,61.4,51.9,30.19,NE,44,2.0,9.0,71,0.00,,,0.00,Wunderground v.1.13,2013-11-25 00:11:00,
2013-11-24 19:16:00,61.3,52.2,30.19,NE,52,10.0,13.0,72,0.00,,,0.00,Wunderground v.1.13,2013-11-25 00:16:00,
2013-11-24 19:21:00,61.1,52.0,30.19,NE,52,6.0,7.0,72,0.00,,,0.00,Wunderground v.1.13,2013-11-25 00:21:00,
2013-11-24 19:26:00,61.0,51.9,30.19,NNE,18,8.0,8.0,72,0.00,,,0.00,Wunderground v.1.13,2013-11-25 00:26:00,
2013-11-24 19:31:00,60.8,51.3,30.19,NE,34,9.0,11.0,71,0.00,,,0.00,Wunderground v.1.13,2013-11-25 00:31:00,
2013-11-24 19:36:00,60.8,51.7,30.20,NE,36,3.0,10.0,72,0.00,,,0.00,Wunderground v.1.13,2013-11-25 00:36:00,
2013-11-24 19:42:00,60.7,51.2,30.20,ENE,63,8.0,10.0,71,0.00,,,0.00,Wunderground v.1.13,2013-11-25 00:42:00,
2013-11-24 19:47:00,60.7,51.6,30.20,NE,42,11.0,13.0,72,0.00,,,0.00,Wunderground v.1.13,2013-11-25 00:47:00,
2013-11-24 19:52:00,60.6,51.1,30.20,NE,40,2.0,14.0,71,0.00,,,0.00,Wunderground v.1.13,2013-11-25 00:52:00,
2013-11-24 19:57:00,60.5,51.4,30.20,ENE,59,6.0,7.0,72,0.00,,,0.00,Wunderground v.1.13,2013-11-25 00:57:00,
2013-11-24 20:02:00,60.4,51.3,30.20,NNE,28,6.0,13.0,72,0.00,,,0.00,Wunderground v.1.13,2013-11-25 01:02:00,
2013-11-24 20:07:00,60.2,51.1,30.21,NNE,30,2.0,7.0,72,0.00,,,0.00,Wunderground v.1.13,2013-11-25 01:07:00,
2013-11-24 20:12:00,60.2,51.1,30.21,NE,53,5.0,13.0,72,0.00,,,0.00,Wunderground v.1.13,2013-11-25 01:12:00,
2013-11-24 20:17:00,60.1,51.0,30.21,NE,53,11.0,14.0,72,0.00,,,0.00,Wunderground v.1.13,2013-11-25 01:17:00,
2013-11-24 20:22:00,60.1,51.0,30.21,NNE,23,0.0,14.0,72,0.00,,,0.00,Wunderground v.1.13,2013-11-25 01:22:00,
2013-11-24 20:27:00,60.0,50.9,30.21,NE,49,8.0,9.0,72,0.00,,,0.00,Wunderground v.1.13,2013-11-25 01:27:00,
2013-11-24 20:32:00,60.0,50.9,30.21,NE,37,7.0,7.0,72,0.00,,,0.00,Wunderground v.1.13,2013-11-25 01:32:00,
2013-11-24 20:37:00,59.9,50.8,30.21,NE,55,12.0,13.0,72,0.00,,,0.00,Wunderground v.1.13,2013-11-25 01:37:00,
2013-11-24 20:42:00,59.9,50.8,30.21,NNE,28,0.0,12.0,72,0.00,,,0.00,Wunderground v.1.13,2013-11-25 01:42:00,
2013-11-24 20:47:00,59.9,50.8,30.21,NNE,33,2.0,15.0,72,0.00,,,0.00,Wunderground v.1.13,2013-11-25 01:47:00,
2013-11-24 20:52:00,59.8,50.8,30.21,North,9,2.0,11.0,72,0.00,,,0.00,Wunderground v.1.13,2013-11-25 01:52:00,
2013-11-24 20:57:00,59.8,50.8,30.21,NNE,32,6.0,14.0,72,0.00,,,0.00,Wunderground v.1.13,2013-11-25 01:57:00,
2013-11-24 21:02:00,59.8,50.8,30.21,NNE,31,0.0,10.0,72,0.00,,,0.00,Wunderground v.1.13,2013-11-25 02:02:00,
2013-11-24 21:07:00,59.8,50.8,30.21,NNE,21,0.0,14.0,72,0.00,,,0.00,Wunderground v.1.13,2013-11-25 02:07:00,
2013-11-24 21:12:00,59.8,50.8,30.21,North,5,10.0,16.0,72,0.00,,,0.00,Wunderground v.1.13,2013-11-25 02:12:00,
2013-11-24 21:17:00,59.8,50.8,30.21,NE,39,9.0,13.0,72,0.00,,,0.00,Wunderground v.1.13,2013-11-25 02:17:00,
2013-11-24 21:23:00,59.8,50.8,30.21,NE,37,11.0,14.0,72,0.00,,,0.00,Wunderground v.1.13,2013-11-25 02:23:00,
2013-11-24 21:28:00,59.9,50.8,30.21,ENE,61,0.0,14.0,72,0.00,,,0.00,Wunderground v.1.13,2013-11-25 02:28:00,
2013-11-24 21:33:00,59.9,50.8,30.21,NNE,20,13.0,15.0,72,0.00,,,0.00,Wunderground v.1.13,2013-11-25 02:33:00,
2013-11-24 21:38:00,59.9,50.8,30.21,NNE,29,4.0,12.0,72,0.00,,,0.00,Wunderground v.1.13,2013-11-25 02:38:00,
2013-11-24 21:43:00,59.9,50.8,30.21,NNE,32,8.0,10.0,72,0.00,,,0.00,Wunderground v.1.13,2013-11-25 02:43:00,
2013-11-24 21:48:00,59.9,50.8,30.21,ENE,64,14.0,18.0,72,0.00,,,0.00,Wunderground v.1.13,2013-11-25 02:48:00,
2013-11-24 21:53:00,59.9,50.8,30.21,NE,55,6.0,11.0,72,0.00,,,0.00,Wunderground v.1.13,2013-11-25 02:53:00,
2013-11-24 21:58:00,59.9,50.8,30.21,NE,38,2.0,14.0,72,0.00,,,0.00,Wunderground v.1.13,2013-11-25 02:58:00,
2013-11-24 22:03:00,59.8,50.8,30.21,NNE,16,11.0,19.0,72,0.00,,,0.00,Wunderground v.1.13,2013-11-25 03:03:00,
2013-11-24 22:08:00,59.8,50.8,30.21,NNE,32,9.0,11.0,72,0.00,,,0.00,Wunderground v.1.13,2013-11-25 03:08:00,
2013-11-24 22:13:00,59.7,50.7,30.21,ENE,67,4.0,10.0,72,0.00,,,0.00,Wunderground v.1.13,2013-11-25 03:13:00,
2013-11-24 22:18:00,59.6,50.6,30.21,NNE,16,0.0,10.0,72,0.00,,,0.00,Wunderground v.1.13,2013-11-25 03:18:00,
2013-11-24 22:23:00,59.6,50.6,30.21,ENE,57,7.0,16.0,72,0.00,,,0.00,Wunderground v.1.13,2013-11-25 03:23:00,
2013-11-24 22:28:00,59.5,50.5,30.21,NNE,22,5.0,14.0,72,0.00,,,0.00,Wunderground v.1.13,2013-11-25 03:28:00,
2013-11-24 22:33:00,59.6,50.6,30.21,NE,46,5.0,15.0,72,0.00,,,0.00,Wunderground v.1.13,2013-11-25 03:33:00,
2013-11-24 22:38:00,59.6,50.6,30.21,NE,38,6.0,12.0,72,0.00,,,0.00,Wunderground v.1.13,2013-11-25 03:38:00,
2013-11-24 22:43:00,59.6,50.6,30.20,NE,45,5.0,11.0,72,0.00,,,0.00,Wunderground v.1.13,2013-11-25 03:43:00,
2013-11-24 22:48:00,59.6,50.6,30.20,NNE,28,6.0,16.0,72,0.00,,,0.00,Wunderground v.1.13,2013-11-25 03:48:00,
2013-11-24 22:54:00,59.6,50.6,30.21,NNE,30,5.0,15.0,72,0.00,,,0.00,Wunderground v.1.13,2013-11-25 03:54:00,
2013-11-24 22:59:00,59.6,50.6,30.21,NE,55,3.0,15.0,72,0.00,,,0.00,Wunderground v.1.13,2013-11-25 03:59:00,
2013-11-24 23:04:00,59.6,50.6,30.21,NNE,24,5.0,13.0,72,0.00,,,0.00,Wunderground v.1.13,2013-11-25 04:04:00,
2013-11-24 23:09:00,59.6,50.6,30.21,NE,34,4.0,12.0,72,0.00,,,0.00,Wunderground v.1.13,2013-11-25 04:09:00,
2013-11-24 23:14:00,59.6,50.6,30.20,NNE,12,5.0,16.0,72,0.00,,,0.00,Wunderground v.1.13,2013-11-25 04:14:00,
2013-11-24 23:19:00,59.6,50.6,30.20,ENE,58,13.0,14.0,72,0.00,,,0.00,Wunderground v.1.13,2013-11-25 04:19:00,
2013-11-24 23:24:00,59.6,50.6,30.20,NE,40,9.0,13.0,72,0.00,,,0.00,Wunderground v.1.13,2013-11-25 04:24:00,
2013-11-24 23:29:00,59.6,50.6,30.20,NNE,13,8.0,12.0,72,0.00,,,0.00,Wunderground v.1.13,2013-11-25 04:29:00,
2013-11-24 23:34:00,59.5,50.5,30.20,North,5,6.0,12.0,72,0.00,,,0.00,Wunderground v.1.13,2013-11-25 04:34:00,
2013-11-24 23:39:00,59.5,50.5,30.20,NNE,30,6.0,13.0,72,0.00,,,0.00,Wunderground v.1.13,2013-11-25 04:39:00,
2013-11-24 23:44:00,59.5,50.5,30.20,NNE,30,0.0,11.0,72,0.00,,,0.00,Wunderground v.1.13,2013-11-25 04:44:00,
2013-11-24 23:49:00,59.5,50.5,30.20,NNE,29,0.0,7.0,72,0.00,,,0.00,Wunderground v.1.13,2013-11-25 04:49:00,
2013-11-24 23:55:00,59.5,50.5,30.20,NE,41,0.0,14.0,72,0.00,,,0.00,Wunderground v.1.13,2013-11-25 04:55:00,